伽利略0207星导航星座 (GSAT0207 (GALILEO 15))

导读 | 豆包AI

GALILEO 15(又名Antonianna)是欧洲空间局(ESA)主导的伽利略全球卫星导航系统(Galileo)的一颗中地球轨道导航卫星,由OHB集团负责平台建造、萨里卫星技术有限公司提供载荷。卫星质量733kg,设计寿命12年,于2016年11月17日搭乘阿丽亚娜5 ES火箭从圭亚那航天中心发射升空,运行在高度约23616公里、倾角56°的中圆地球轨道,为全球用户提供独立精准的定位、导航与授时服务。

Basic Information
目录编号:
41859
目录名称:
GALILEO 15 (267)
国际标识:
2016-069A
轨道中心:
EARTH
卫星名称:
伽利略0207星
卫星全名:
伽利略0207星导航星座 (GSAT0207 (GALILEO 15))
卫星状态:
在轨 (已飞行3404 天)
发射日期:
2016-11-17 UTC
国别 :
(ESA)
星等 :
--
Orbit Information
数据来源 国际轨道数据 AOE轨道数据
星历时间 2026-03-13T11:10:30+0800
23小时前
查看轨道信息
2026-03-12T23:00:00+0800
1天前
查看轨道信息
半长轴 29600.274km 29600.274km
偏心率 0.0005359 0.0005351
轨道倾角 55.435° 55.435°
近地点辐角 309.858° 309.940°
升交点赤经 103.743° 103.757°
平近点角 50.166° 98.751°
近地点 23206.274km 23206.297km
远地点 23238km 23237.977km
周期 844.702分钟 844.702分钟
每日圈数 1.704744 1.704744
Detailed Information
平衡模式:
三轴稳定
覆盖范围:
全球
运营商:
欧盟空间计划局
运营商所在国:
法国大都会
使用方式:
暂无
Satellite Introduction
伽利略定位系统(Galileo)是一个全球导航卫星系统,于2016年投入使用由欧盟通过ESA创建,由欧盟空间计划局(EUSPA)运营。该系统有两个地面操控站,并且在高纬度地区提供比其他系统更好的定位服务。该卫星仍在工作。
2D Orbit Map
3D Orbit Map
Orbit Altitude Analysis Chart
Orbit Inclination Analysis Chart
Orbit Comprehensive Analysis Chart
View Comprehensive Chart